This is the latest recevied weather packets stored in our database for station/object NO3U. If no packets are shown the sender has not sent any weather packets the latest 10 day(s).
| Time | Temp. | Humidity | Pressure | Rain* | Wind** | Luminosity | Snow |
|---|---|---|---|---|---|---|---|
| 1778111025 | 11.67° C | 60% | 1013.5 hPa | 0 mm | - | 10 W/m² | - |
| 1778110722 | 11.67° C | 60% | 1013.5 hPa | 0 mm | - | 13 W/m² | - |
| 1778110418 | 11.67° C | 58% | 1013.3 hPa | 0 mm | - | 20 W/m² | - |
| 1778110115 | 11.67° C | 58% | 1013.4 hPa | 0 mm | - | 22 W/m² | - |
| 1778109811 | 11.67° C | 58% | 1013.4 hPa | 0 mm | - | 25 W/m² | - |
| 1778109507 | 11.67° C | 61% | 1013.3 hPa | 0 mm | - | 29 W/m² | - |
| 1778109205 | 11.67° C | 59% | 1013.3 hPa | 0 mm | - | 23 W/m² | - |
| 1778108902 | 11.67° C | 58% | 1013.3 hPa | 0 mm | - | 30 W/m² | - |
| 1778108599 | 11.67° C | 57% | 1013.3 hPa | 0 mm | - | 40 W/m² | - |
| 1778108294 | 12.22° C | 59% | 1012.9 hPa | 0 mm | - | 46 W/m² | - |
| 1778107992 | 12.22° C | 59% | 1012.9 hPa | 0 mm | - | 44 W/m² | - |
| 1778107689 | 12.22° C | 57% | 1012.8 hPa | 0 mm | - | 42 W/m² | - |
| 1778107386 | 12.22° C | 58% | 1012.7 hPa | 0 mm | - | 56 W/m² | - |
| 1778107082 | 12.22° C | 60% | 1012.7 hPa | 0 mm | - | 63 W/m² | - |
| 1778106777 | 12.22° C | 59% | 1012.8 hPa | 0 mm | - | 91 W/m² | - |
| 1778106474 | 12.78° C | 60% | 1012.8 hPa | 0 mm | - | 111 W/m² | - |
| 1778106170 | 12.78° C | 59% | 1012.7 hPa | 0 mm | - | 111 W/m² | - |
| 1778105863 | 12.78° C | 61% | 1012.7 hPa | 0 mm | - | 98 W/m² | - |
| 1778105560 | 12.78° C | 59% | 1012.5 hPa | 0 mm | - | 103 W/m² | - |
| 1778105252 | 12.78° C | 59% | 1012.4 hPa | 0 mm | - | 92 W/m² | - |
| 1778104952 | 12.78° C | 60% | 1012.3 hPa | 0 mm | - | 73 W/m² | - |
| 1778104649 | 12.78° C | 60% | 1012.1 hPa | 0 mm | - | 111 W/m² | - |
| 1778104344 | 13.33° C | 64% | 1012 hPa | 0 mm | - | 95 W/m² | - |
| 1778104041 | 13.33° C | 60% | 1012.2 hPa | 0 mm | - | 132 W/m² | - |
| 1778103738 | 13.33° C | 62% | 1012 hPa | 0 mm | - | 134 W/m² | - |
* Rain latest hour (hover to see other rain measurements)
** Current wind speed in m/s (hover to see current wind gust speed)